Regional Weather Roundup
Issued by NWS

Home | Current Version | Previous Version | Text Only | Print | Product List | Glossary Off
Versions: 1 2 3 4 5 6 7 8 9 10 11 12 13 14 15 16 17 18 19 20 21 22 23 24 25 26 27 28 29 30 31 32 33 34 35 36 37 38 39 40 41 42 43 44 45 46 47 48 49 50

224
ASUS43 KIND 221509
RWRIN

WEATHER ROUNDUP FOR INDIANA
NATIONAL WEATHER SERVICE INDIANAPOLIS IN
1100 AM EDT SUN OCT 22 2017

NOTE: "FAIR" INDICATES FEW OR NO CLOUDS BELOW 12,000 FEET WITH NO
SIGNIFICANT WEATHER AND/OR OBSTRUCTIONS TO VISIBILITY.

* - STATION DOES NOT REPORT WEATHER SUCH AS PRECIPITATION OR FOG.

+ - STATION NOT QUALITY CONTROLLED BY THE NATIONAL WEATHER SERVICE.
    USE DATA WITH CAUTION...ESPECIALLY DEWPOINT AND RELATIVE
    HUMIDITY OBSERVATIONS.

INZ001>003-010>013-019-020-221600-
NORTHWEST INDIANA

CITY           SKY/WX    TMP DP  RH WIND       PRES   REMARKS
GARY /AIRPORT/ PTSUNNY   70  55  60 S14G26    29.98S
KNOX *+        CLOUDY    68  55  64 S18G24    30.02F
LA PORTE +     CLOUDY    67  56  68 S17       30.03S
MICHIGAN CITY+ SUNNY     68  55  64 S13G23    30.01S
MONTICELLO +   CLOUDY    65  55  69 S9G18     30.04S
RENSSELAER +   MOSUNNY   66  50  55 S13G23    30.02S
VALPARAISO     MOSUNNY   69  57  65 S18G25    30.01F

$$

LMZ046-743>745-221600-
SOUTHERN LAKE MICHIGAN

STATION/POSITION TIME  TEMP    WIND        PRES    WAVE
                       AIR SEA DIR/SP/G            HT
                 (UTC) (F)     (DEG/KT/KT) (MB)    (FT)
BURNS HARBOR     1440   68     180/ 17/ 27 1015.2F
MICHIGAN CITY    1440   66     160/ 16/ 21   N/A
5NW MICH CITY    1500   65 58  180/ 19/ 25   N/A     3

$$

INZ004-005-014>016-021>024-221600-
NORTH CENTRAL INDIANA

CITY           SKY/WX    TMP DP  RH WIND       PRES   REMARKS
GOSHEN         SUNNY     67  53  61 S15       30.06F
LOGANSPORT +   CLOUDY    68  54  60 S24       30.08S
PERU/GRISSOM   PTSUNNY   71  56  58 S17G26    30.08S
SOUTH BEND     MOSUNNY   67  57  70 S17G23    30.04F
WARSAW +       CLOUDY    66  54  63 S9        30.08F

$$

INZ006>009-017-018-025>027-221600-
NORTHEAST INDIANA

CITY           SKY/WX    TMP DP  RH WIND       PRES   REMARKS
AUBURN +       PTSUNNY   68  52  56 S6G20     30.12F
FORT WAYNE     CLOUDY    68  53  58 S18G29    30.12F
HUNTINGTON +   MOSUNNY   68  53  58 S13G20    30.11F
KENDALLVILLE + MOSUNNY   65  54  67 S12G17    30.11F

$$

INZ028-029-035-036-043>045-051>053-221600-
WEST CENTRAL INDIANA

CITY           SKY/WX    TMP DP  RH WIND       PRES   REMARKS
CRAWFORDSVL +  PTSUNNY   66  55  68 S13G18    30.07S
GREENCASTLE +  MOSUNNY   68  54  60 S14       30.09S
LAFAYETTE      CLOUDY    66  57  72 S12       30.04S
TERRE HAUTE    CLOUDY    69  56  62 S16G24    30.07S

$$

INZ030>032-037>040-046>048-054>057-064-065-221600-
CENTRAL INDIANA

CITY           SKY/WX    TMP DP  RH WIND       PRES   REMARKS
CP ATTERBURY + SUNNY     68  52  56 S9        30.14F
COLUMBUS       MOSUNNY   64  46  52 S21       30.15S
FRANKFORT +    CLOUDY    70  57  63 S9G18     30.09S
GREENWOOD *+   SUNNY     69  54  59 S13G18    30.14S
INDIANAPOLIS   PTSUNNY   69  54  58 S15       30.11R
-EAGLE CREEK   MOSUNNY   67  53  61 S7        30.11R
KOKOMO +       CLOUDY    69  54  58 S15G24    30.11S
MARION +       CLOUDY    68  54  60 S15G24    30.13S
MT COMFORT *+  SUNNY     68  57  68 S18G25    30.13S
SHELBYVILLE    LGT RAIN  70  50  49 S20G26    30.13S
ZIONSVILLE +   MOSUNNY   66  53  64 S18       30.12R

$$

INZ033-034-041-042-049-050-058-059-221600-
EAST CENTRAL INDIANA

CITY           SKY/WX    TMP DP  RH WIND       PRES   REMARKS
MUNCIE         SUNNY     70  51  51 S9G20     30.14S
RICHMOND +     SUNNY     64  50  59 S20       30.20S

$$

INZ060-061-067>069-081>083-085>088-221600-
SOUTHWEST INDIANA

CITY           SKY/WX    TMP DP  RH WIND       PRES   REMARKS
EVANSVILLE     CLOUDY    68  56  65 VRB7      30.09F
HUNTINGBURG +  CLOUDY    70  57  63 S17G24    30.12F
WASHINGTON +   CLOUDY    69  53  55 S12G18    30.10S

$$

INZ062-063-066-070>080-084-089>092-221600-
SOUTH CENTRAL AND SOUTHEAST INDIANA

CITY           SKY/WX    TMP DP  RH WIND       PRES   REMARKS
BEDFORD +      CLOUDY    70  52  52 S16G22    30.13R
BLOOMINGTON    CLOUDY    71  54  54 S18G25    30.11F
MADISON *+     SUNNY     68  50  52 S9        30.20S
NORTH VERNON + PTSUNNY   68  50  52 S16G28    30.17R
SEYMOUR +      SUNNY     70  50  49 S14G20    30.15S

$$





USA.gov is the U.S. government's official web portal to all federal, state and local government web resources and services.